Location: Ulm
(48.3980°N, 9.9777°E)
Time: 13:14:25
(UTC+01:00)

Envisat - Visible Passes

Search period start: 18 November 2017 00:00
Search period end: 28 November 2017 00:00
Orbit: 764 x 766 km, 98.2° (Epoch: 18 November)

Date Brightness Start Highest point End Pass type
(mag) Time Alt. Az. Time Alt. Az. Time Alt. Az.
18 Nov 4.9 18:46:43 15° NNE 18:46:43 15° NNE 18:47:49 10° N visible
18 Nov 5.6 20:26:56 13° NNW 20:26:56 13° NNW 20:27:29 10° NNW visible
19 Nov 5.1 18:09:40 10° NNE 18:09:40 10° NNE 18:09:51 10° NNE visible
19 Nov 5.2 19:49:53 16° N 19:49:53 16° N 19:50:50 10° N visible
20 Nov 5.0 19:12:49 15° N 19:12:49 15° N 19:13:50 10° N visible
21 Nov 5.0 18:35:46 13° NNE 18:35:46 13° NNE 18:36:27 10° NNE visible
21 Nov 5.6 20:15:59 12° NNW 20:15:59 12° NNW 20:16:26 10° NNW visible
22 Nov 5.2 19:38:55 14° N 19:38:55 14° N 19:39:39 10° N visible
23 Nov 5.1 19:01:51 14° N 19:01:51 14° N 19:02:34 10° N visible
24 Nov 5.1 18:24:47 11° NNE 18:24:47 11° NNE 18:25:00 10° NNE visible
24 Nov 5.5 20:04:59 12° NNW 20:04:59 12° NNW 20:05:20 10° NNW visible
25 Nov 5.3 19:27:55 13° N 19:27:55 13° N 19:28:28 10° N visible
26 Nov 5.2 18:50:50 12° N 18:50:50 12° N 18:51:16 10° N visible
27 Nov 5.5 19:53:59 11° NNW 19:53:59 11° NNW 19:54:12 10° NNW visible
